Flag for Guyana Weather past 2 weeks in Georgetown, Guyana

Now
75 °F

Fog.


Feels Like: 74 °F
Forecast: 79 / 88 °F
Wind: 2 mph from Northeast

Location: Georgetown/Cheddi Jagan International Airport

Current Time: Sep 5, 2015 at 4:54:30 AM

Latest Report: Sep 5, 2015 at 4:00 AM


Visibility: 3 mi

Pressure: 29.92 "Hg

Humidity: 94%

Dew point: 73 °F

Location of GeorgetownLocation

Historic Weather in Georgetown — Graph

°F

Georgetown temperature yesterday

Maximum temperature yesterday: 90 °F (at 1:00 PM)
Minimum temperature yesterday: 73 °F (at 3:00 AM)
Average temperature yesterday: 79 °F

Past Weeks' High & Low Weather Summary

 TemperatureHumidityPressure
High93 °F (Aug 27, 2:00 PM)100% (Aug 21, 5:00 AM)29.98 "Hg (Aug 21, 5:00 AM)
Low73 °F (Aug 22, 4:00 AM)49% (Aug 30, 2:00 PM)29.77 "Hg (Aug 22, 4:00 PM)
Average80 °F86%29.89 "Hg
* Reported Aug 21 3:00 AM — Sep 5 3:00 AM, Georgetown, Weather by CustomWeather, © 2015

Note: Actual official high and low records may vary slightly from our data, if they occured in-between our weather recording intervals... More about our weather records

Advertising

Georgetown weather history for previous 24 hours

 ConditionsComfort  
Time TempWeatherWind HumidityBarometerVisibility
3:00 AM
Sat, Sep 5
73 °FFog.No wind100%29.89 "Hg3 mi
2:00 AM75 °FClear.5 mph94%29.89 "Hg10 mi
1:00 AM75 °FClear.2 mph100%29.92 "Hg10 mi
12:00 AM75 °FClear.2 mph100%29.92 "Hg10 mi
11:00 PM
Fri, Sep 4
77 °FClear.5 mph94%29.92 "Hg10 mi
10:00 PM77 °FClear.5 mph94%29.95 "Hg10 mi
9:00 PM77 °FPassing clouds.5 mph100%29.92 "HgN/A
8:00 PM79 °FClear.5 mph94%29.92 "Hg10 mi
7:00 PM79 °FPassing clouds.2 mph89%29.89 "HgN/A
6:00 PM79 °FPassing clouds.5 mph94%29.86 "HgN/A
5:00 PM79 °FSprinkles. Partly sunny.12 mph89%29.86 "Hg5 mi
4:00 PM79 °FSprinkles. Partly sunny.7 mph94%29.86 "Hg5 mi
3:00 PM81 °FThunderstorms. Partly sunny.7 mph89%29.86 "Hg5 mi
2:00 PM84 °FSprinkles. Partly sunny.9 mph79%29.86 "Hg5 mi
1:00 PM90 °FPartly sunny.9 mph63%29.89 "HgN/A
12:00 PM86 °FPartly sunny.9 mph75%29.92 "HgN/A
11:00 AM86 °FPartly sunny.7 mph75%29.95 "HgN/A
10:00 AM84 °FSprinkles. Partly sunny.7 mph70%29.95 "HgN/A
9:00 AM84 °FPartly sunny.7 mph79%29.95 "HgN/A
8:00 AM82 °FPassing clouds.No wind84%29.95 "HgN/A
6:00 AM75 °FPassing clouds.No wind94%29.92 "HgN/A
5:00 AM73 °FFog.No wind100%29.92 "Hg3 mi
4:00 AM73 °FPassing clouds.2 mph100%29.89 "HgN/A
Weather by CustomWeather, © 2015

See weather overviewHow to use our weather pages